SCP
0 0 0 0 0 0 0 0 0 0 0 0 0 0 0 0 0 0 0 0 0 0 0 0 0 0 0 0 0 0 0 0 0 0 0 0 0 0 0 0 0 0 0
0 0 0 0 0 0 0 0 0 0 0 0 0 0 0 0 0 0 0 0 0 0 0 0 0 0 0 0 0 0 0 0 0 0 0 0 0 0 0 0 0 0 0
0 0 0 0 0 0 0 0 0 0 0 0 0 0 0 0 0 0 0 0 0 0 0 0 0 0 0 0 0 0 0 0 0 0 0 0 0 0 0 0 0 0 0
0 0 0 0 0 0 0 0 0 0 0 0 0 0 0 0 0 0 0 0 0 0 0 0 0 0 0 0 0 0 0 0 0 0 0 0 0 0 0 0 0 0 0
0 0 0 0 0 0 0 0 0 0 0 0 0 0 0 0 0 0 0 0 0 0 0 0 0 0 0 0 0 0 0 0 0 0 0 0 0 0 0 0 0 0 0
0 0 0 0 0 0 0 0 0 0 0 0 0 0 0 0 0 0 0 0 0 0 0 0 0 0 0 0 0 0 0 0 0 0 0 0 0 0 0 0 0 0 0
0 0 0 0 0 0 0 0 0 0 0 0 0 0 0 0 0 0 0 0 0 0 0 0 0 0 0 0 0 0 0 0 0 0 0 0 0 0 0 0 0 0 0
0 0 0 0 0 0 0 0 0 0 0 0 0 0 0 0 0 0 0 0 0 0 0 0 0 0 0 0 0 0 0 0 0 0 0 0 0 0 0 0 0 0 0
0 0 0 0 0 0 0 0 0 0 0 0 0 0 0 0 0 0 0 0 0 0 0 0 0 0 0 0 0 0 0 0 0 0 0 0 0 0 0 0 0 0 0
0 0 0 0 0 0 0 0 0 0 0 0 0 0 0 0 0 0 0 0 0 0 0 0 0 0 0 0 0 0 0 0 0 0 0 0 0 0 0 0 0 0 0
0 0 0 0 0 0 0 0 0 0 0 0 0 0 0 0 0 0 0 0 0 0 0 0 0 0 0 0 0 0 0 0 0 0 0 0 0 0 0 0 0 0 0
0 0 0 0 0 0 0 0 0 0 0 0 0 0 0 0 0 0 0 0 0 0 0 0 0 0 0 0 0 0 0 0 0 0 0 0 0 0 0 0 0 0 0
0 0 0 0 0 0 0 0 0 0 0 0 0 0 0 0 0 0 0 0 0 0 0 0 0 0 0 0 0 0 0 0 0 0 0 0 0 0 0 0 0 0 0
0 0 0 0 0 0 0 0 0 0 0 0 0 0 0 0 0 0 0 0 0 0 0 0 0 0 0 0 0 0 0 0 0 0 0 0 0 0 0 0 0 0 0
0 0 0 0 0 0 0 0 0 0 0 0 0 0 0 0 0 0 0 0 0 0 0 0 0 0 0 0 0 0 0 0 0 0 0 0 0 0 0 0 0 0 0
0 0 0 0 0 0 0 0 0 0 0 0 0 0 0 0 0 0 0 0 0 0 0 0 0 0 0 0 0 0 0 0 0 0 0 0 0 0 0 0 0 0 0
0 0 0 0 0 0 0 0 0 0 0 0 0 0 0 0 0 0 0 0 0 0 0 0 0 0 0 0 0 0 0 0 0 0 0 0 0 0 0 0 0 0 0
0 0 0 0 0 0 0 0 0 0 0 0 0 0 0 0 0 0 0 0 0 0 0 0 0 0 0 0 0 0 0 0 0 0 0 0 0 0 0 0 0 0 0
0 0 0 0 0 0 0 0 0 0 0 0 0 0 0 0 0 0 0 0 0 0 0 0 0 0 0 0 0 0 0 0 0 0 0 0 0 0 0 0 0 0 0
0 0 0 0 0 0 0 0 0 0 0 0 0 0 0 0 0 0 0 0 0 0 0 0 0 0 0 0 0 0 0 0 0 0 0 0 0 0 0 0 0 0 0
0 0 0 0 0 0 0 0 0 0 0 0 0 0 0 0 0 0 0 0 0 0 0 0 0 0 0 0 0 0 0 0 0 0 0 0 0 0 0 0 0 0 0
0 0 0 0 0 0 0 0 0 0 0 0 0 0 0 0 0 0 0 0 0 0 0 0 0 0 0 0 0 0 0 0 0 0 0 0 0 0 0 0 0 0 0
0 0 0 0 0 0 0 0 0 0 0 0 0 0 0 0 0 0 0 0 0 0 0 0 0 0 0 0 0 0 0 0 0 0 0 0 0 0 0 0 0 0 0
0 0 0 0 0 0 0 0 0 0 0 0 0 0 0 0 0 0 0 0 0 0 0 0 0 0 0 0 0 0 0 0 0 0 0 0 0 0 0 0 0 0 0
0 0 0 0 0 0 0 0 0 0 0 0 0 0 0 0 0 0 0 0 0 0 0 0 0 0 0 0 0 0 0 0 0 0 0 0 0 0 0 0 0 0 0
0 0 0 0 0 0 0 0 0 0 0 0 0 0 0 0 0 0 0 0 0 0 0 0 0 0 0 0 0 0 0 0 0 0 0 0 0 0 0 0 0 0 0
Wind_Speed
4 5 8 5 5 5 5 6 5 6 6 7 7 7 7 8 8 9 10 10 11 11 12 13 15 17 17 16 16 16 16 15 14 14 14 14 13 12 12 12 11 11 14
4 6 8 5 5 5 6 5 6 5 6 6 7 7 7 7 8 9 10 10 11 12 12 13 15 16 16 16 16 15 15 14 14 14 14 14 12 11 10 9 6 10 12
5 5 6 6 6 5 5 5 5 6 6 6 7 7 7 7 8 9 10 10 11 12 13 14 15 15 15 15 15 15 14 14 13 13 12 10 12 11 10 10 10 12 12
5 5 6 7 6 5 5 5 5 6 6 7 7 7 7 8 9 10 10 10 11 12 13 14 14 14 14 14 14 14 13 13 12 12 8 8 10 12 10 10 10 11 11
6 6 8 6 6 5 5 5 6 6 7 7 7 7 7 8 9 10 11 11 11 12 12 13 13 13 13 13 13 13 12 12 11 9 7 7 8 11 10 10 10 10 10
6 6 9 6 6 5 5 5 5 6 7 7 7 7 7 8 8 9 10 11 11 11 11 11 12 12 12 12 12 12 12 11 10 7 7 6 8 10 9 9 9 9 10
7 6 8 6 5 5 5 5 5 6 6 7 7 7 7 7 8 9 10 10 10 10 11 11 11 11 11 11 11 11 10 8 4 6 5 6 8 9 9 8 8 8 9
7 6 7 7 5 5 6 6 6 6 6 7 6 6 6 6 7 8 9 10 10 10 10 10 10 10 10 9 10 10 9 5 5 6 6 7 9 8 8 8 8 8 8
6 6 5 5 6 5 6 7 7 7 6 7 6 6 5 5 6 8 9 9 10 10 10 10 10 10 9 9 9 9 7 3 2 5 5 6 8 7 8 7 7 7 7
6 5 5 6 5 4 7 8 6 6 6 6 6 4 3 5 7 8 9 9 9 9 10 9 9 9 9 8 9 8 7 6 4 5 4 7 8 7 7 7 7 7 7
5 5 4 5 4 4 5 6 5 6 5 4 5 4 2 3 5 7 9 9 9 9 9 9 9 9 9 10 9 8 6 3 4 3 4 9 8 6 7 6 6 6 7
5 4 4 4 4 4 4 4 3 3 4 3 4 3 3 4 3 5 10 9 9 9 9 9 9 9 6 6 9 8 3 3 2 3 6 9 7 6 6 6 6 6 6
4 4 4 5 4 4 3 3 3 2 3 3 4 4 3 3 3 4 4 6 6 7 5 8 7 4 3 3 2 3 2 1 1 2 6 9 6 6 6 6 6 6 6
4 4 4 4 4 3 3 3 2 3 2 3 4 3 3 3 3 3 2 3 3 3 3 2 2 4 3 3 2 2 2 1 1 2 5 8 6 6 5 5 5 6 5
4 4 4 3 4 3 3 2 3 3 3 4 3 4 3 2 3 3 3 2 2 3 3 2 2 3 3 3 2 2 2 2 2 2 4 7 6 6 6 6 5 5 5
3 4 4 3 4 3 2 2 2 3 3 3 4 5 4 3 3 3 3 2 2 2 3 2 3 3 2 2 2 3 2 1 2 2 2 5 7 6 5 6 6 5 5
3 4 3 3 4 3 2 2 2 2 3 3 3 4 4 3 3 2 2 2 2 2 3 2 2 2 2 2 3 3 2 1 2 2 1 2 4 7 6 5 6 5 5
3 4 3 3 5 4 3 1 1 2 3 2 3 3 3 3 3 1 2 2 2 2 2 2 2 2 2 2 2 2 2 2 2 2 2 1 1 2 6 6 5 5 5
3 4 4 3 3 3 3 2 2 2 2 2 2 2 3 2 2 1 2 2 1 2 2 2 3 2 2 2 2 2 2 2 2 2 2 1 2 1 2 7 6 4 4
5 4 4 4 3 3 3 3 2 1 1 2 2 3 2 2 2 2 2 2 1 2 2 2 2 2 1 2 2 2 2 2 1 2 1 2 2 2 2 2 4 6 5
5 5 4 4 4 3 2 2 2 2 1 2 2 3 2 2 2 2 2 2 1 2 2 2 2 3 2 1 1 2 2 2 2 1 1 0 1 1 1 1 1 1 4
6 6 6 5 5 4 3 1 1 1 1 1 2 2 2 2 1 1 2 1 2 1 2 1 1 1 1 1 1 1 2 2 2 1 1 1 1 0 1 2 1 1 1
7 7 5 5 5 4 4 3 3 2 1 2 2 2 1 1 1 1 1 1 0 1 1 1 1 1 1 1 1 1 1 1 2 2 1 1 1 1 1 2 2 1 1
8 7 6 6 5 5 5 4 3 2 2 2 1 2 2 1 1 1 0 0 1 1 1 2 1 1 2 1 2 1 1 1 1 2 2 2 1 1 1 1 2 2 1
8 8 7 7 6 5 5 4 4 3 2 2 2 2 1 1 1 1 1 0 1 1 0 1 0 1 1 2 1 1 1 2 2 1 1 1 1 1 1 1 1 1 1
9 8 8 7 6 6 5 5 4 3 2 2 1 1 1 1 1 1 1 0 0 0 1 1 1 1 2 2 2 2 2 1 2 1 2 2 1 1 1 1 0 1 1
Wind_Direction
75 78 87 69 65 69 88 92 90 91 93 98 102 102 101 106 109 114 116 116 116 118 120 121 121 126 127 127 126 125 125 126 128 129 130 129 130 130 131 136 147 128 123
65 77 90 71 68 73 84 90 89 92 93 98 103 102 100 101 106 113 114 114 116 118 119 121 120 123 126 126 126 126 128 130 131 133 137 138 136 134 134 137 129 118 132
70 76 94 72 74 76 79 83 87 91 93 96 99 100 100 101 107 109 110 114 117 119 120 121 124 125 127 127 127 129 132 134 136 145 163 150 136 138 136 131 121 126 133
77 75 74 75 82 80 79 80 83 87 92 96 97 96 96 105 110 111 112 115 117 117 118 120 124 127 128 128 130 132 134 137 145 169 166 136 135 134 138 135 133 133 136
78 75 77 75 83 79 77 78 79 81 90 95 95 94 94 106 110 113 113 113 116 117 118 120 123 126 127 129 132 134 135 142 160 179 128 130 126 132 139 139 141 143 143
87 80 80 70 73 73 74 76 77 80 85 91 93 91 92 106 109 114 116 115 117 120 121 121 123 124 126 129 131 134 138 151 179 138 131 135 126 135 143 144 146 148 149
86 82 84 72 70 65 63 70 79 81 84 88 91 90 91 104 112 117 122 122 120 121 124 124 123 124 125 131 133 134 140 165 170 125 134 125 116 136 147 148 149 151 151
86 85 91 93 76 71 65 79 78 81 83 87 88 89 88 100 109 116 122 126 124 123 122 121 121 123 125 128 134 134 141 185 151 127 130 120 116 139 149 151 154 156 156
80 78 83 93 100 105 93 81 77 78 80 85 86 87 89 97 112 119 124 127 128 127 126 125 126 125 126 127 131 135 143 192 181 122 125 114 127 145 152 154 156 159 160
77 74 74 70 67 85 99 97 90 87 85 90 91 94 118 143 137 137 136 128 131 131 129 129 132 133 130 129 134 140 155 197 160 128 122 115 131 148 152 156 161 166 168
76 66 56 71 73 69 80 92 109 113 104 116 114 121 169 136 122 134 107 119 128 129 131 132 135 138 143 144 145 153 181 190 124 118 108 115 142 157 159 161 167 173 176
82 76 67 65 65 69 70 77 69 81 84 74 66 74 91 98 102 110 121 128 129 135 142 139 139 153 179 150 150 173 185 147 129 131 117 130 152 166 167 166 173 174 174
96 86 82 75 58 54 70 70 55 59 66 78 70 72 82 95 108 108 119 134 137 145 136 136 157 149 135 115 139 160 139 124 127 126 121 141 159 173 174 174 179 178 178
100 90 77 80 81 60 47 60 60 58 56 56 71 51 71 83 84 92 98 101 114 111 108 112 116 111 112 125 126 120 131 139 123 112 120 140 156 169 175 171 173 180 179
106 97 91 78 80 76 64 33 55 49 38 49 41 53 44 76 89 89 88 82 84 93 107 107 104 109 119 120 108 112 117 114 135 150 127 143 158 165 168 166 173 181 184
122 107 103 104 98 84 74 63 54 56 49 30 46 47 38 53 69 82 102 93 83 84 81 91 107 109 106 97 107 108 118 130 140 160 154 152 163 166 169 171 174 181 189
131 114 117 122 115 110 92 77 80 66 60 41 49 54 45 52 64 67 85 102 86 95 114 127 120 119 128 121 114 115 123 138 138 138 169 170 169 170 172 176 181 189 195
137 131 133 136 126 125 112 79 70 57 59 53 42 50 52 45 51 43 73 85 101 119 120 133 144 127 111 113 111 103 112 129 143 147 162 176 192 167 166 167 175 185 195
154 148 152 145 136 132 129 133 122 94 70 69 63 51 59 55 52 38 64 73 123 110 111 124 105 115 118 115 123 129 120 119 130 144 140 177 176 177 162 149 160 164 186
162 161 161 162 155 154 149 143 140 119 104 92 83 67 57 57 57 20 84 85 77 94 97 88 110 120 128 137 126 103 113 112 127 114 166 177 175 177 183 168 167 163 160
170 171 171 173 158 171 159 165 146 129 107 97 97 84 71 50 55 43 39 77 72 91 106 135 144 148 147 136 146 132 118 122 109 118 154 180 153 161 157 173 199 181 159
178 179 178 181 173 184 157 158 136 105 118 101 83 84 85 80 58 80 71 72 82 113 132 153 183 188 152 160 210 181 168 150 148 103 119 133 105 170 154 147 126 130 272
186 186 184 180 177 184 173 177 154 154 163 133 118 121 95 91 98 56 62 45 92 196 136 189 198 214 215 178 232 278 251 118 120 120 86 83 98 137 141 133 146 148 189
188 182 181 177 181 181 188 192 188 180 152 121 131 103 105 103 102 112 114 161 264 273 174 226 151 239 237 218 182 222 286 340 229 149 147 121 109 103 95 103 97 98 109
186 181 176 174 179 181 188 182 199 194 167 149 137 120 142 119 126 80 97 158 235 255 301 313 232 262 249 268 256 208 194 203 235 224 167 140 124 101 102 100 87 89 101
182 180 174 168 175 178 183 185 194 182 172 153 161 155 183 147 138 95 86 64 236 282 218 227 246 233 289 295 285 264 237 231 215 212 193 177 160 110 96 69 66 90 88